| time (UTC) | temp F | wind direction | speed knots | gust knots | rain 1hr in | rain 24hr in | rain mn in | humidity % | barometer mb |
| 20260504151017 | 57 | 315 | 1.7 | 7.8 | 0.00 | 0.00 | 0.00 | 59 | 1008.8 |
| 20260504150517 | 57 | 293 | 1.7 | 8.7 | 0.00 | 0.00 | 0.00 | 57 | 1008.9 |
| 20260504141016 | 57 | 293 | 2.6 | 7.8 | 0.00 | 0.00 | 0.00 | 56 | 1008.7 |
| 20260504140516 | 56 | 315 | 2.6 | 24.3 | 0.00 | 0.00 | 0.00 | 57 | 1009.0 |
| 20260504130516 | 54 | 315 | 2.6 | 7.8 | 0.00 | 0.00 | 0.00 | 55 | 1009.0 |
| 20260504110536 | 49 | 338 | 1.7 | 8.7 | 0.00 | 0.00 | 0.00 | 65 | 1009.3 |
| 20260504100516 | 45 | 315 | 0.9 | 3.5 | 0.00 | 0.00 | 0.00 | 75 | 1009.2 |
| 20260504081516 | 45 | 0 | 0.9 | 4.3 | 0.00 | 0.00 | 0.00 | 82 | 1009.5 |
| 20260504081016 | 45 | 45 | 1.7 | 7.0 | 0.00 | 0.00 | 0.00 | 83 | 1009.3 |
| 20260504080616 | 45 | 90 | 0.9 | 7.0 | 0.00 | 0.00 | 0.00 | 83 | 1009.5 |
| 20260504050515 | 43 | 270 | 1.7 | 5.2 | 0.00 | 0.00 | 0.00 | 79 | 1009.9 |
| 20260504045515 | 44 | 270 | 2.6 | 7.8 | 0.00 | 0.00 | 0.00 | 78 | 1010.0 |
| 20260504045017 | 44 | 315 | 1.7 | 4.3 | 0.00 | 0.00 | 0.00 | 76 | 1010.1 |
| 20260504044537 | 44 | 270 | 1.7 | 7.0 | 0.00 | 0.00 | 0.00 | 74 | 1010.1 |
| 20260504044038 | 44 | 270 | 1.7 | 10.4 | 0.00 | 0.00 | 0.00 | 71 | 1010.2 |
| 20260504043558 | 44 | 135 | 0.9 | 7.8 | 0.00 | 0.00 | 0.00 | 69 | 1010.2 |
| 20260504043018 | 44 | 293 | 0.9 | 6.1 | 0.00 | 0.00 | 0.00 | 67 | 1010.1 |
| 20260504042537 | 44 | 270 | 0.9 | 6.1 | 0.00 | 0.00 | 0.00 | 66 | 1010.2 |
| 20260504042017 | 44 | 225 | 0.9 | 6.1 | 0.00 | 0.00 | 0.00 | 65 | 1010.2 |
| 20260504041517 | 45 | 293 | 0.9 | 4.3 | 0.00 | 0.00 | 0.00 | 65 | 1010.2 |
| 20260504041118 | 44 | 293 | 1.7 | 7.0 | 0.00 | 0.00 | 0.00 | 65 | 1010.2 |
| 20260504040517 | 44 | 248 | 0.9 | 7.8 | 0.00 | 0.00 | 0.00 | 63 | 1010.1 |
| 20260504040017 | 44 | 135 | 0.9 | 3.5 | 0.00 | 0.00 | 0.00 | 63 | 1010.1 |
| 20260504035515 | 44 | 135 | 0.9 | 4.3 | 0.00 | 0.00 | 0.00 | 65 | 1010.1 |
| 20260504035015 | 44 | 203 | 1.7 | 13.0 | 0.00 | 0.00 | 0.00 | 63 | 1010.0 |
| 20260504034516 | 44 | 90 | 0.9 | 7.0 | 0.00 | 0.00 | 0.00 | 63 | 1010.0 |
| 20260504034016 | 44 | 180 | 1.7 | 3.5 | 0.00 | 0.00 | 0.00 | 61 | 1010.1 |
| 20260504033616 | 44 | 180 | 1.7 | 9.6 | 0.00 | 0.00 | 0.00 | 62 | 1010.1 |
| 20260504033015 | 44 | 293 | 1.7 | 6.1 | 0.00 | 0.00 | 0.00 | 60 | 1010.1 |
| 20260504032515 | 43 | 225 | 0.9 | 2.6 | 0.00 | 0.00 | 0.00 | 63 | 1010.0 |
| 20260504032015 | 43 | 293 | 0.9 | 3.5 | 0.00 | 0.00 | 0.00 | 62 | 1009.7 |
| 20260504031515 | 42 | 293 | 1.7 | 6.1 | 0.00 | 0.00 | 0.00 | 63 | 1009.8 |
| 20260504031015 | 42 | 113 | 0.9 | 3.5 | 0.00 | 0.00 | 0.00 | 63 | 1009.7 |
| 20260504030515 | 42 | 135 | 0.9 | 6.1 | 0.00 | 0.00 | 0.00 | 69 | 1009.7 |
| 20260504030015 | 41 | 0.0 | 1.7 | 0.00 | 0.00 | 0.00 | 65 | 1009.8 | |
| 20260504025515 | 41 | 68 | 0.9 | 2.6 | 0.00 | 0.00 | 0.00 | 66 | 1009.7 |
| 20260504025036 | 41 | 68 | 0.9 | 2.6 | 0.00 | 0.00 | 0.00 | 65 | 1009.6 |
| 20260504024515 | 41 | 135 | 0.9 | 1.7 | 0.00 | 0.00 | 0.00 | 63 | 1009.7 |
| 20260504024016 | 41 | 158 | 0.9 | 2.6 | 0.00 | 0.00 | 0.00 | 65 | 1009.8 |
| 20260504023516 | 41 | 225 | 0.9 | 2.6 | 0.00 | 0.00 | 0.00 | 62 | 1009.7 |
| 20260504023017 | 41 | 113 | 0.9 | 3.5 | 0.00 | 0.00 | 0.00 | 67 | 1009.7 |
| 20260504022517 | 41 | 270 | 0.9 | 4.3 | 0.00 | 0.00 | 0.00 | 61 | 1009.8 |
| 20260504022017 | 40 | 113 | 0.9 | 3.5 | 0.00 | 0.00 | 0.00 | 65 | 1009.7 |
| 20260504021517 | 40 | 203 | 0.9 | 2.6 | 0.00 | 0.00 | 0.00 | 66 | 1009.8 |
| 20260504021017 | 40 | 248 | 1.7 | 7.8 | 0.00 | 0.00 | 0.00 | 65 | 1009.6 |
| 20260504020517 | 39 | 225 | 0.9 | 4.3 | 0.00 | 0.00 | 0.00 | 69 | 1009.8 |
| 20260504020017 | 38 | 135 | 0.9 | 2.6 | 0.00 | 0.00 | 0.00 | 73 | 1009.7 |
| 20260504015517 | 38 | 135 | 0.9 | 3.5 | 0.00 | 0.00 | 0.00 | 73 | 1009.8 |
| 20260504015017 | 37 | 225 | 0.9 | 3.5 | 0.00 | 0.00 | 0.00 | 74 | 1009.6 |
| 20260504014517 | 37 | 225 | 0.9 | 2.6 | 0.00 | 0.00 | 0.00 | 74 | 1009.6 |
| 20260504014037 | 37 | 225 | 0.9 | 2.6 | 0.00 | 0.00 | 0.00 | 77 | 1009.5 |
| 20260504013517 | 36 | 180 | 0.9 | 7.0 | 0.00 | 0.00 | 0.00 | 76 | 1009.6 |
| 20260504013017 | 36 | 180 | 0.9 | 1.7 | 0.00 | 0.00 | 0.00 | 81 | 1009.5 |
| 20260504012517 | 36 | 180 | 0.9 | 2.6 | 0.00 | 0.00 | 0.00 | 81 | 1009.6 |
| 20260504012017 | 36 | 203 | 1.7 | 4.3 | 0.00 | 0.00 | 0.00 | 83 | 1009.5 |
| 20260504011517 | 35 | 90 | 0.9 | 5.2 | 0.00 | 0.00 | 0.00 | 84 | 1009.3 |
| 20260504011017 | 35 | 135 | 0.9 | 2.6 | 0.00 | 0.00 | 0.00 | 85 | 1009.2 |
| 20260504010517 | 35 | 135 | 0.9 | 2.6 | 0.00 | 0.00 | 0.00 | 85 | 1009.1 |
| 20260504010017 | 35 | 135 | 1.7 | 6.1 | 0.00 | 0.00 | 0.00 | 85 | 1009.1 |
| 20260504005517 | 35 | 158 | 1.7 | 3.5 | 0.00 | 0.00 | 0.00 | 85 | 1008.9 |
| 20260504005017 | 35 | 158 | 0.9 | 2.6 | 0.00 | 0.00 | 0.00 | 86 | 1008.8 |
| 20260504004515 | 36 | 158 | 0.9 | 3.5 | 0.00 | 0.00 | 0.00 | 86 | 1008.8 |
| 20260504004037 | 36 | 158 | 0.9 | 1.7 | 0.00 | 0.00 | 0.00 | 85 | 1008.7 |
| 20260504003517 | 36 | 158 | 0.9 | 2.6 | 0.00 | 0.00 | 0.00 | 85 | 1008.7 |
| 20260504003017 | 37 | 0.0 | 1.7 | 0.00 | 0.00 | 0.00 | 84 | 1008.6 | |
| 20260504002517 | 37 | 0.0 | 0.9 | 0.00 | 0.00 | 0.00 | 84 | 1008.6 | |
| 20260504002017 | 37 | 0.0 | 1.7 | 0.00 | 0.00 | 0.00 | 84 | 1008.5 | |
| 20260504001537 | 37 | 0.0 | 0.0 | 0.00 | 0.00 | 0.00 | 83 | 1008.5 | |
| 20260504001017 | 38 | 0.0 | 0.0 | 0.00 | 0.00 | 0.00 | 83 | 1008.5 | |
| 20260504000517 | 38 | 0.0 | 0.9 | 0.00 | 0.00 | 0.00 | 82 | 1008.3 | |
| 20260504000058 | 39 | 158 | 0.9 | 2.6 | 0.00 | 0.00 | 0.00 | 80 | 1008.3 |
| 20260503235517 | 39 | 0.0 | 0.0 | 0.00 | 0.00 | 0.00 | 79 | 1008.4 | |
| 20260503235037 | 40 | 0.0 | 0.0 | 0.00 | 0.00 | 0.00 | 79 | 1008.3 | |
| 20260503234537 | 41 | 158 | 0.9 | 2.6 | 0.00 | 0.00 | 0.00 | 76 | 1008.3 |
| 20260503234017 | 42 | 158 | 0.9 | 2.6 | 0.00 | 0.00 | 0.00 | 74 | 1008.3 |
| 20260503233517 | 42 | 158 | 0.9 | 2.6 | 0.00 | 0.00 | 0.00 | 72 | 1008.2 |
| 20260503233037 | 43 | 248 | 0.9 | 3.5 | 0.00 | 0.00 | 0.00 | 68 | 1008.1 |
| 20260503232517 | 44 | 248 | 0.9 | 2.6 | 0.00 | 0.00 | 0.00 | 64 | 1008.1 |
| 20260503232017 | 44 | 0.0 | 1.7 | 0.00 | 0.00 | 0.00 | 63 | 1008.1 | |
| 20260503231537 | 45 | 0.0 | 1.7 | 0.00 | 0.00 | 0.00 | 60 | 1008.3 | |
| 20260503231017 | 46 | 0.0 | 0.9 | 0.00 | 0.00 | 0.00 | 61 | 1008.3 | |
| 20260503230517 | 46 | 0.0 | 0.9 | 0.00 | 0.00 | 0.00 | 52 | 1008.1 | |
| 20260503230038 | 46 | 270 | 0.9 | 3.5 | 0.00 | 0.00 | 0.00 | 55 | 1008.0 |
| 20260503225517 | 47 | 0.0 | 1.7 | 0.00 | 0.00 | 0.00 | 52 | 1008.1 | |
| 20260503225017 | 47 | 0.0 | 1.7 | 0.00 | 0.00 | 0.00 | 52 | 1008.0 | |
| 20260503224517 | 48 | 225 | 1.7 | 5.2 | 0.00 | 0.00 | 0.00 | 48 | 1008.1 |
| 20260503224017 | 48 | 270 | 0.9 | 5.2 | 0.00 | 0.00 | 0.00 | 49 | 1008.2 |
| 20260503223517 | 48 | 315 | 0.9 | 3.5 | 0.00 | 0.00 | 0.00 | 51 | 1008.2 |
| 20260503223017 | 48 | 248 | 1.7 | 7.0 | 0.00 | 0.00 | 0.00 | 47 | 1008.1 |
| 20260503222558 | 49 | 293 | 0.9 | 6.1 | 0.00 | 0.00 | 0.00 | 49 | 1008.0 |
| 20260503222037 | 48 | 270 | 1.7 | 5.2 | 0.00 | 0.00 | 0.00 | 48 | 1008.1 |
| 20260503221517 | 48 | 315 | 0.9 | 3.5 | 0.00 | 0.00 | 0.00 | 52 | 1008.2 |
| 20260503221017 | 48 | 293 | 1.7 | 7.0 | 0.00 | 0.00 | 0.00 | 48 | 1008.1 |
| 20260503220517 | 49 | 270 | 1.7 | 7.0 | 0.00 | 0.00 | 0.00 | 51 | 1008.3 |
| 20260503220017 | 49 | 338 | 0.9 | 3.5 | 0.00 | 0.00 | 0.00 | 49 | 1008.1 |
| 20260503215517 | 48 | 293 | 0.9 | 4.3 | 0.00 | 0.00 | 0.00 | 49 | 1008.3 |
| 20260503215017 | 48 | 293 | 0.9 | 2.6 | 0.00 | 0.00 | 0.00 | 54 | 1008.1 |
| 20260503214517 | 48 | 293 | 0.9 | 3.5 | 0.00 | 0.00 | 0.00 | 51 | 1008.2 |
| 20260503214017 | 48 | 293 | 1.7 | 6.1 | 0.00 | 0.00 | 0.00 | 51 | 1008.1 |
| 20260503213517 | 48 | 270 | 1.7 | 7.0 | 0.00 | 0.00 | 0.00 | 52 | 1008.1 |
| 20260503213017 | 48 | 293 | 1.7 | 7.8 | 0.00 | 0.00 | 0.00 | 51 | 1008.2 |
| 20260503212517 | 47 | 270 | 2.6 | 10.4 | 0.00 | 0.00 | 0.00 | 48 | 1008.1 |
| 20260503212017 | 48 | 270 | 1.7 | 3.5 | 0.00 | 0.00 | 0.00 | 51 | 1008.2 |
| 20260503211517 | 48 | 270 | 1.7 | 4.3 | 0.00 | 0.00 | 0.00 | 52 | 1008.2 |
| 20260503211017 | 47 | 293 | 1.7 | 6.1 | 0.00 | 0.00 | 0.00 | 53 | 1008.1 |
| 20260503210517 | 47 | 158 | 1.7 | 6.1 | 0.00 | 0.00 | 0.00 | 51 | 1008.2 |
| 20260503210037 | 47 | 338 | 0.9 | 3.5 | 0.00 | 0.00 | 0.00 | 53 | 1008.3 |
| 20260503205516 | 47 | 293 | 0.9 | 4.3 | 0.00 | 0.00 | 0.00 | 52 | 1008.1 |
| 20260503205017 | 47 | 293 | 0.9 | 4.3 | 0.00 | 0.00 | 0.00 | 55 | 1008.1 |
| 20260503204517 | 47 | 270 | 0.9 | 5.2 | 0.00 | 0.00 | 0.00 | 54 | 1008.1 |
| 20260503204017 | 47 | 180 | 1.7 | 10.4 | 0.00 | 0.00 | 0.00 | 57 | 1008.2 |
| 20260503203517 | 47 | 248 | 1.7 | 4.3 | 0.00 | 0.00 | 0.00 | 54 | 1008.0 |
| 20260503203037 | 47 | 293 | 0.9 | 2.6 | 0.00 | 0.00 | 0.00 | 55 | 1008.2 |
| 20260503202517 | 47 | 293 | 1.7 | 6.1 | 0.00 | 0.00 | 0.00 | 54 | 1008.2 |
| 20260503202017 | 47 | 293 | 1.7 | 5.2 | 0.00 | 0.00 | 0.00 | 54 | 1008.2 |
| 20260503201517 | 47 | 293 | 1.7 | 5.2 | 0.00 | 0.00 | 0.00 | 56 | 1008.3 |
| 20260503201037 | 47 | 315 | 0.9 | 7.8 | 0.00 | 0.00 | 0.00 | 57 | 1008.3 |
| 20260503200517 | 47 | 293 | 1.7 | 7.0 | 0.00 | 0.00 | 0.00 | 54 | 1008.3 |
| 20260503200017 | 47 | 270 | 1.7 | 7.0 | 0.00 | 0.00 | 0.00 | 56 | 1008.3 |
| 20260503195537 | 47 | 270 | 1.7 | 7.8 | 0.00 | 0.00 | 0.00 | 57 | 1008.4 |
| 20260503195037 | 46 | 270 | 1.7 | 7.0 | 0.00 | 0.00 | 0.00 | 53 | 1008.5 |
| 20260503194517 | 47 | 293 | 1.7 | 7.0 | 0.00 | 0.00 | 0.00 | 53 | 1008.7 |
| 20260503194017 | 47 | 0 | 1.7 | 6.1 | 0.00 | 0.00 | 0.00 | 54 | 1008.4 |
| 20260503193517 | 48 | 293 | 1.7 | 9.6 | 0.00 | 0.00 | 0.00 | 54 | 1008.7 |
| 20260503193017 | 48 | 270 | 3.5 | 9.6 | 0.00 | 0.00 | 0.00 | 51 | 1008.6 |
| 20260503192517 | 47 | 293 | 1.7 | 5.2 | 0.00 | 0.00 | 0.00 | 56 | 1008.6 |
| 20260503192017 | 47 | 135 | 0.9 | 6.1 | 0.00 | 0.00 | 0.00 | 57 | 1008.7 |
| 20260503191517 | 46 | 293 | 1.7 | 6.1 | 0.00 | 0.00 | 0.00 | 55 | 1008.8 |
| 20260503191017 | 47 | 315 | 1.7 | 6.1 | 0.00 | 0.00 | 0.00 | 53 | 1008.9 |
| 20260503190517 | 48 | 293 | 1.7 | 4.3 | 0.00 | 0.00 | 0.00 | 54 | 1008.9 |
| 20260503190017 | 48 | 0 | 2.6 | 8.7 | 0.00 | 0.00 | 0.00 | 57 | 1008.9 |
| 20260503185517 | 47 | 135 | 1.7 | 7.0 | 0.00 | 0.00 | 0.00 | 59 | 1008.8 |
| 20260503185017 | 46 | 338 | 0.9 | 7.8 | 0.00 | 0.00 | 0.00 | 57 | 1008.9 |
| 20260503184517 | 45 | 293 | 1.7 | 6.1 | 0.00 | 0.00 | 0.00 | 57 | 1008.7 |
| 20260503184016 | 45 | 293 | 1.7 | 6.1 | 0.00 | 0.00 | 0.00 | 58 | 1008.8 |
| 20260503183517 | 45 | 270 | 0.9 | 6.1 | 0.00 | 0.00 | 0.00 | 58 | 1008.9 |
| 20260503183057 | 45 | 293 | 1.7 | 6.1 | 0.00 | 0.00 | 0.00 | 57 | 1008.8 |
| 20260503182538 | 45 | 315 | 2.6 | 8.7 | 0.00 | 0.00 | 0.00 | 56 | 1008.9 |
| 20260503182017 | 46 | 293 | 2.6 | 12.2 | 0.00 | 0.00 | 0.00 | 57 | 1008.9 |
| 20260503181517 | 46 | 293 | 1.7 | 6.1 | 0.00 | 0.00 | 0.00 | 56 | 1008.9 |
| 20260503181017 | 46 | 293 | 1.7 | 8.7 | 0.00 | 0.00 | 0.00 | 58 | 1009.0 |
| 20260503180516 | 45 | 338 | 0.9 | 3.5 | 0.00 | 0.00 | 0.00 | 60 | 1009.0 |
| 20260503180057 | 45 | 293 | 1.7 | 5.2 | 0.00 | 0.00 | 0.00 | 60 | 1008.9 |
| 20260503175516 | 45 | 293 | 0.9 | 3.5 | 0.00 | 0.00 | 0.00 | 61 | 1008.9 |
| 20260503175016 | 44 | 270 | 0.9 | 2.6 | 0.00 | 0.00 | 0.00 | 58 | 1008.9 |
| 20260503174516 | 45 | 293 | 2.6 | 11.3 | 0.00 | 0.00 | 0.00 | 55 | 1008.9 |
| 20260503174016 | 45 | 270 | 0.9 | 2.6 | 0.00 | 0.00 | 0.00 | 59 | 1008.9 |
| 20260503173517 | 45 | 225 | 1.7 | 7.8 | 0.00 | 0.00 | 0.00 | 57 | 1008.8 |
| 20260503173016 | 45 | 315 | 1.7 | 6.1 | 0.00 | 0.00 | 0.00 | 59 | 1009.0 |
| 20260503172516 | 44 | 270 | 1.7 | 7.8 | 0.00 | 0.00 | 0.00 | 61 | 1009.0 |
| 20260503172017 | 44 | 293 | 2.6 | 7.0 | 0.00 | 0.00 | 0.00 | 57 | 1009.0 |
| 20260503171557 | 44 | 315 | 0.9 | 2.6 | 0.00 | 0.00 | 0.00 | 61 | 1009.0 |
| 20260503171016 | 44 | 0 | 1.7 | 7.8 | 0.00 | 0.00 | 0.00 | 61 | 1009.0 |
| 20260503170516 | 44 | 315 | 1.7 | 3.5 | 0.00 | 0.00 | 0.00 | 64 | 1009.0 |